Flag for Switzerland Weather past 2 weeks in Sarnen, Obwalden, Switzerland

Now
50 °F

Cool.


Feels Like: 50 °F
Forecast: 38 / 60 °F
Wind: 1 mph from Northwest

Location: Giswil

Current Time: Oct 25, 2014 at 9:23:37 PM

Latest Report: Oct 25, 2014 at 8:00 PM


Visibility: N/A

Pressure: 30.22 "Hg

Humidity: 100%

Dew point: 50 °F

Location of SarnenLocation

Historic Weather in Sarnen — Graph

°F

Sarnen temperature yesterday

Maximum temperature yesterday: 52 °F (at 4:00 PM)
Minimum temperature yesterday: 32 °F (at 6:00 AM)
Average temperature yesterday: 39 °F

Past Weeks' High & Low Weather Summary

 TemperatureHumidityPressure
High70 °F (Oct 21, 3:00 PM)100% (Oct 10, 11:00 PM)30.34 "Hg (Oct 10, 11:00 PM)
Low32 °F (Oct 24, 6:00 AM)40% (Oct 21, 6:00 PM)29.75 "Hg (Oct 21, 7:00 PM)
Average52 °F89%30.05 "Hg
* Reported Oct 10 8:00 PM — Oct 25 8:00 PM, Sarnen, Weather by CustomWeather, © 2014

Note: Actual official high and low records may vary slightly from our data, if they occured in-between our weather recording intervals... More about our weather records

Advertising

Sarnen weather history for previous 24 hours

 ConditionsComfort  
Time TempWeatherWind HumidityBarometerVisibility
8:00 PM
Oct 25
50 °FCool.1 mph100%30.22 "HgN/A
7:00 PM50 °FCool.No wind100%30.21 "HgN/A
6:00 PM51 °FCool.1 mph100%30.20 "HgN/A
5:00 PM51 °FCool.1 mph99%30.19 "HgN/A
4:00 PM52 °FCool.5 mph92%30.18 "HgN/A
3:00 PM53 °FCool.1 mph86%30.16 "HgN/A
2:00 PM51 °FCool.2 mph90%30.18 "HgN/A
1:00 PM50 °FCool.No wind92%30.19 "HgN/A
12:00 PM49 °FCool.No wind91%30.17 "HgN/A
11:00 AM48 °FCool.1 mph94%30.18 "HgN/A
10:00 AM46 °FCool.1 mph97%30.19 "HgN/A
9:00 AM45 °FCool.1 mph97%30.18 "HgN/A
8:00 AM44 °FQuite cool.2 mph97%30.18 "HgN/A
7:00 AM44 °FQuite cool.2 mph97%30.17 "HgN/A
6:00 AM44 °FQuite cool.1 mph98%30.16 "HgN/A
5:00 AM43 °FQuite cool.2 mph98%30.17 "HgN/A
4:00 AM43 °FQuite cool.No wind98%30.16 "HgN/A
3:00 AM42 °FQuite cool.1 mph100%30.17 "HgN/A
2:00 AM42 °FQuite cool.No wind99%30.18 "HgN/A
1:00 AM40 °FChilly.2 mph100%30.19 "HgN/A
12:00 AM38 °FChilly.2 mph100%30.20 "HgN/A
11:00 PM
Oct 24
38 °FChilly.2 mph100%30.21 "HgN/A
10:00 PM37 °FChilly.2 mph100%30.21 "HgN/A
9:00 PM37 °FChilly.2 mph100%30.20 "HgN/A
Weather by CustomWeather, © 2014

See weather overviewHow to use our weather pages